| time (UTC) | temp F | wind direction | speed MPH | gust MPH | rain 1hr in | rain 24hr in | rain mn in | humidity % | barometer mb |
| 20260906210008 | 87 | 5 | 1.0 | 10.0 | 0.00 | 0.00 | 0.00 | 34 | 1004.7 |
| 20260906204507 | 87 | 160 | 5.0 | 18.0 | 0.00 | 0.00 | 0.00 | 34 | 1004.2 |
| 20260906203006 | 89 | 167 | 13.0 | 22.0 | 0.00 | 0.00 | 0.00 | 32 | 1004.2 |
| 20260906201506 | 90 | 210 | 11.0 | 22.0 | 0.00 | 0.00 | 0.00 | 33 | 1004.1 |
| 20260906200006 | 88 | 171 | 10.0 | 28.0 | 0.00 | 0.00 | 0.00 | 34 | 1003.9 |
| 20260906194504 | 91 | 161 | 14.0 | 24.0 | 0.00 | 0.00 | 0.00 | 32 | 1004.0 |
| 20260906193100 | 91 | 187 | 11.0 | 18.0 | 0.00 | 0.00 | 0.00 | 31 | 1003.8 |
| 20260906191600 | 90 | 151 | 13.0 | 28.0 | 0.00 | 0.00 | 0.00 | 32 | 1004.0 |
| 20260906190103 | 91 | 184 | 12.0 | 18.0 | 0.00 | 0.00 | 0.00 | 32 | 1004.1 |
| 20260906184612 | 91 | 178 | 8.0 | 20.0 | 0.00 | 0.00 | 0.00 | 31 | 1004.3 |
| 20260906183050 | 91 | 199 | 12.0 | 19.0 | 0.00 | 0.00 | 0.00 | 31 | 1004.5 |
| 20260906181550 | 90 | 168 | 13.0 | 19.0 | 0.00 | 0.00 | 0.00 | 32 | 1004.7 |
| 20260906180043 | 90 | 164 | 10.0 | 17.0 | 0.00 | 0.00 | 0.00 | 32 | 1004.9 |
| 20260906174544 | 90 | 185 | 9.0 | 13.0 | 0.00 | 0.00 | 0.00 | 32 | 1005.2 |
| 20260906173039 | 89 | 184 | 11.0 | 17.0 | 0.00 | 0.00 | 0.00 | 33 | 1005.4 |
| 20260906171540 | 89 | 146 | 10.0 | 17.0 | 0.00 | 0.00 | 0.00 | 33 | 1005.6 |
| 20260906170034 | 87 | 207 | 10.0 | 19.0 | 0.00 | 0.00 | 0.00 | 34 | 1005.8 |
| 20260906164537 | 88 | 147 | 10.0 | 14.0 | 0.00 | 0.00 | 0.00 | 34 | 1006.0 |
| 20260906163031 | 87 | 159 | 6.0 | 11.0 | 0.00 | 0.00 | 0.00 | 35 | 1006.2 |
| 20260906161529 | 87 | 175 | 9.0 | 14.0 | 0.00 | 0.00 | 0.00 | 35 | 1006.2 |
| 20260906160024 | 85 | 205 | 8.0 | 13.0 | 0.00 | 0.00 | 0.00 | 38 | 1006.3 |
| 20260906154520 | 84 | 154 | 8.0 | 11.0 | 0.00 | 0.00 | 0.00 | 39 | 1006.3 |
| 20260906153023 | 82 | 160 | 7.0 | 12.0 | 0.00 | 0.00 | 0.00 | 42 | 1006.3 |
| 20260906151511 | 81 | 152 | 10.0 | 13.0 | 0.00 | 0.00 | 0.00 | 43 | 1006.5 |
| 20260906150007 | 80 | 136 | 5.0 | 12.0 | 0.00 | 0.00 | 0.00 | 46 | 1006.6 |
| 20260906144504 | 80 | 170 | 5.0 | 7.0 | 0.00 | 0.00 | 0.00 | 47 | 1006.7 |
| 20260906143101 | 79 | 170 | 5.0 | 8.0 | 0.00 | 0.00 | 0.00 | 48 | 1006.8 |
| 20260906141606 | 77 | 166 | 4.0 | 6.0 | 0.00 | 0.00 | 0.00 | 50 | 1006.8 |
| 20260906140057 | 76 | 166 | 5.0 | 8.0 | 0.00 | 0.00 | 0.00 | 53 | 1006.7 |
| 20260906134605 | 74 | 170 | 5.0 | 9.0 | 0.00 | 0.00 | 0.00 | 55 | 1006.8 |
| 20260906133056 | 71 | 160 | 5.0 | 10.0 | 0.00 | 0.00 | 0.00 | 60 | 1006.8 |
| 20260906131553 | 69 | 204 | 3.0 | 5.0 | 0.00 | 0.00 | 0.00 | 64 | 1006.8 |
| 20260906130108 | 68 | 204 | 1.0 | 5.0 | 0.00 | 0.00 | 0.00 | 65 | 1006.6 |
| 20260906124549 | 69 | 201 | 6.0 | 9.0 | 0.00 | 0.00 | 0.00 | 63 | 1006.4 |
| 20260906123029 | 70 | 190 | 4.0 | 7.0 | 0.00 | 0.00 | 0.00 | 60 | 1006.3 |
| 20260906121518 | 70 | 194 | 0.0 | 3.0 | 0.00 | 0.00 | 0.00 | 62 | 1006.1 |
| 20260906120017 | 68 | 193 | 0.0 | 3.0 | 0.00 | 0.00 | 0.00 | 65 | 1006.0 |
| 20260906114516 | 69 | 193 | 1.0 | 3.0 | 0.00 | 0.00 | 0.00 | 61 | 1005.9 |
| 20260906113012 | 70 | 192 | 0.0 | 3.0 | 0.00 | 0.00 | 0.00 | 61 | 1005.9 |
| 20260906111511 | 71 | 191 | 0.0 | 4.0 | 0.00 | 0.00 | 0.00 | 59 | 1005.9 |
| 20260906110011 | 70 | 192 | 3.0 | 5.0 | 0.00 | 0.00 | 0.00 | 61 | 1006.0 |
| 20260906104511 | 72 | 195 | 2.0 | 6.0 | 0.00 | 0.00 | 0.00 | 56 | 1005.9 |
| 20260906103022 | 77 | 195 | 0.0 | 5.0 | 0.00 | 0.00 | 0.00 | 49 | 1005.9 |
| 20260906101508 | 77 | 194 | 2.0 | 7.0 | 0.00 | 0.00 | 0.00 | 49 | 1005.9 |
| 20260906100021 | 78 | 194 | 8.0 | 16.0 | 0.00 | 0.00 | 0.00 | 47 | 1005.8 |
| 20260906094505 | 78 | 157 | 10.0 | 18.0 | 0.00 | 0.00 | 0.00 | 48 | 1005.6 |
| 20260906093004 | 78 | 156 | 11.0 | 19.0 | 0.00 | 0.00 | 0.00 | 48 | 1005.6 |
| 20260906091503 | 78 | 148 | 11.0 | 18.0 | 0.00 | 0.00 | 0.00 | 47 | 1005.3 |
| 20260906090002 | 78 | 164 | 12.0 | 16.0 | 0.00 | 0.00 | 0.00 | 49 | 1005.4 |
| 20260906084558 | 76 | 156 | 9.0 | 15.0 | 0.00 | 0.00 | 0.00 | 53 | 1005.3 |
| 20260906083059 | 71 | 198 | 4.0 | 6.0 | 0.00 | 0.00 | 0.00 | 61 | 1005.3 |
| 20260906081554 | 73 | 187 | 4.0 | 7.0 | 0.00 | 0.00 | 0.00 | 57 | 1005.7 |
| 20260906080053 | 75 | 167 | 6.0 | 8.0 | 0.00 | 0.00 | 0.00 | 55 | 1005.7 |
| 20260906074553 | 76 | 167 | 6.0 | 12.0 | 0.00 | 0.00 | 0.00 | 54 | 1005.7 |
| 20260906073051 | 76 | 128 | 9.0 | 13.0 | 0.00 | 0.00 | 0.00 | 55 | 1005.8 |
| 20260906071550 | 76 | 167 | 5.0 | 11.0 | 0.00 | 0.00 | 0.00 | 55 | 1005.8 |
| 20260906070047 | 72 | 189 | 3.0 | 7.0 | 0.00 | 0.00 | 0.00 | 62 | 1005.5 |
| 20260906064545 | 73 | 189 | 3.0 | 6.0 | 0.00 | 0.00 | 0.00 | 60 | 1005.6 |
| 20260906063044 | 72 | 185 | 0.0 | 0.0 | 0.00 | 0.00 | 0.00 | 61 | 1005.5 |
| 20260906061542 | 72 | 184 | 0.0 | 0.0 | 0.00 | 0.00 | 0.00 | 58 | 1005.6 |
| 20260906060038 | 72 | 184 | 0.0 | 0.0 | 0.00 | 0.00 | 0.00 | 57 | 1005.9 |
| 20260906054539 | 71 | 184 | 0.0 | 4.0 | 0.00 | 0.00 | 0.00 | 57 | 1006.1 |
| 20260906053037 | 71 | 184 | 0.0 | 2.0 | 0.00 | 0.00 | 0.00 | 56 | 1006.2 |
| 20260906051533 | 73 | 184 | 0.0 | 0.0 | 0.00 | 0.00 | 0.00 | 53 | 1006.5 |
| 20260906050034 | 73 | 184 | 3.0 | 10.0 | 0.00 | 0.00 | 0.00 | 53 | 1006.5 |
| 20260906044531 | 73 | 136 | 2.0 | 7.0 | 0.00 | 0.00 | 0.00 | 53 | 1006.4 |
| 20260906043030 | 75 | 228 | 3.0 | 5.0 | 0.00 | 0.00 | 0.00 | 51 | 1006.0 |
| 20260906041529 | 77 | 185 | 1.0 | 3.0 | 0.00 | 0.00 | 0.00 | 47 | 1006.0 |
| 20260906040028 | 76 | 185 | 0.0 | 2.0 | 0.00 | 0.00 | 0.00 | 48 | 1006.2 |
| 20260906034528 | 76 | 185 | 0.0 | 0.0 | 0.00 | 0.00 | 0.00 | 47 | 1006.3 |
| 20260906033026 | 78 | 185 | 0.0 | 1.0 | 0.00 | 0.00 | 0.00 | 45 | 1006.4 |
| 20260906031526 | 81 | 185 | 2.0 | 7.0 | 0.00 | 0.00 | 0.00 | 41 | 1006.3 |
| 20260906030025 | 81 | 182 | 3.0 | 9.0 | 0.00 | 0.00 | 0.00 | 41 | 1006.0 |
| 20260906024524 | 81 | 178 | 8.0 | 10.0 | 0.00 | 0.00 | 0.00 | 41 | 1005.9 |
| 20260906023025 | 79 | 188 | 2.0 | 5.0 | 0.00 | 0.00 | 0.00 | 44 | 1005.5 |
| 20260906021535 | 80 | 182 | 4.0 | 7.0 | 0.00 | 0.00 | 0.00 | 43 | 1005.4 |
| 20260906020022 | 81 | 173 | 7.0 | 9.0 | 0.00 | 0.00 | 0.00 | 42 | 1005.2 |
| 20260906014522 | 81 | 180 | 5.0 | 7.0 | 0.00 | 0.00 | 0.00 | 39 | 1005.2 |
| 20260906013034 | 82 | 185 | 4.0 | 7.0 | 0.00 | 0.00 | 0.00 | 37 | 1005.4 |
| 20260906011520 | 83 | 169 | 4.0 | 7.0 | 0.00 | 0.00 | 0.00 | 36 | 1005.4 |
| 20260906010019 | 83 | 188 | 4.0 | 9.0 | 0.00 | 0.00 | 0.00 | 35 | 1005.5 |
| 20260906004518 | 85 | 172 | 13.0 | 20.0 | 0.00 | 0.00 | 0.00 | 33 | 1005.8 |
| 20260906003022 | 86 | 196 | 5.0 | 12.0 | 0.00 | 0.00 | 0.00 | 32 | 1005.7 |
| 20260906001517 | 87 | 188 | 5.0 | 11.0 | 0.00 | 0.00 | 0.00 | 32 | 1005.7 |
| 20260906000017 | 87 | 198 | 2.0 | 7.0 | 0.00 | 0.00 | 0.00 | 32 | 1005.4 |
| 20260905234515 | 87 | 205 | 4.0 | 9.0 | 0.00 | 0.00 | 0.00 | 32 | 1005.3 |
| 20260905233019 | 89 | 199 | 5.0 | 10.0 | 0.00 | 0.00 | 0.00 | 28 | 1005.0 |
| 20260905231514 | 90 | 225 | 7.0 | 11.0 | 0.00 | 0.00 | 0.00 | 26 | 1004.7 |
| 20260905230014 | 88 | 205 | 4.0 | 9.0 | 0.00 | 0.00 | 0.00 | 28 | 1004.7 |
| 20260905224517 | 88 | 204 | 2.0 | 10.0 | 0.00 | 0.00 | 0.00 | 31 | 1004.9 |
| 20260905223013 | 89 | 200 | 6.0 | 12.0 | 0.00 | 0.00 | 0.00 | 29 | 1004.7 |
| 20260905221513 | 89 | 221 | 4.0 | 8.0 | 0.00 | 0.00 | 0.00 | 29 | 1004.6 |
| 20260905220011 | 89 | 134 | 3.0 | 11.0 | 0.00 | 0.00 | 0.00 | 27 | 1004.7 |
| 20260905214510 | 90 | 143 | 3.0 | 8.0 | 0.00 | 0.00 | 0.00 | 29 | 1004.7 |
| 20260905213009 | 90 | 103 | 5.0 | 10.0 | 0.00 | 0.00 | 0.00 | 27 | 1004.7 |
| 20260905211508 | 91 | 155 | 1.0 | 9.0 | 0.00 | 0.00 | 0.00 | 25 | 1004.8 |